星链-3059 (STARLINK-3059 )

导读

STARLINK-3059是美国太空探索技术公司(SpaceX)星链(Starlink)星座的组成卫星,于2021年9月14日发射升空。星链计划旨在搭建全球卫星互联网,为全球偏远地区等提供高速宽带服务,该卫星承担了星座网络节点功能,进一步扩充了星链低轨卫星网络的覆盖范围与服务能力。

基本信息
目录编号:
49181
目录名称:
STARLINK-3059
国际标识:
2021-082BD
轨道中心:
EARTH
卫星名称:
星链-3059
卫星全名:
星链-3059 (STARLINK-3059 )
卫星状态:
在轨 (已飞行1738 天)
发射日期:
2021-09-14 UTC
国别 :
美国 (US)
星等 :
--
轨道信息
数据来源 国际轨道数据 AOE轨道数据
星历时间 2026-06-18T03:23:33+0800
15小时前
查看轨道信息
2026-06-13T05:00:00+0800
5天前
查看轨道信息
半长轴 6950.194km 6950.156km
偏心率 0.0002806 0.0002889
轨道倾角 70.000° 70.002°
近地点辐角 269.836° 273.911°
升交点赤经 42.025° 54.464°
平近点角 90.248° 125.111°
近地点 570.106km 570.011km
远地点 574.008km 574.027km
周期 96.107分钟 96.106分钟
每日圈数 14.983299 14.983422
详细信息
固有亮度:
5
最大亮度:
2.5
卫星平台:
Starlink v1.5
覆盖范围:
全球
运营商:
太空探索技术公司
运营商所在国:
美国
制造商(研发单位):
太空探索技术公司
制造商所在国:
美国
使用方式:
暂无
卫星简介
星链(Starlink)计划是由太空探索技术公司(SpaceX)提出的一个巨型低轨卫星互联网星座项目,计划在2019年至2024年间在太空搭建由约1.2万颗卫星组成的“星链”网络,其中1584颗将部署在地球上空550千米处的近地轨道,并从2020年开始工作。该卫星仍在工作。
2D轨道图
3D轨道图
轨道高度分析图
轨道倾角分析图
轨道综合分析图
查看轨道综合分析图